Погода в Либревиле

Габон     0°24′41″N   9°31′00″E
темп.,
°C
ветер,
м/с
пор.,
м/с
влажн.,
%
обл.,
%
осадки,
мм/ч
давл.,
гПа
погр.,
м
17 октября, вс
вс1701:00+24ююз2593100 7.5 1011164
04:00+24ю239393 2.4 101094
07:00+24ююв239286 5.9 101188
10:00+28ю337650 2.8 1012797
13:00+28зюз547368 3.6 1009800
16:00+28зюз457330 0.4 1008702
19:00+25юз368686 0.4 1010387
22:00+25юз3586100 0.0 1012261
18 октября, пн
пн1801:00+25ююз3587100 0.0 1010294
04:00+24ююв3591100 0.2 1010255
07:00+24ююв2489100 0.3 1012228
10:00+28ю2272100 0.1 1013727
13:00+27юз227599 0.1 1010641
16:00+28зюз347333 0.1 1009831
19:00+25зюз3686100 0.4 1011293
22:00+25зюз358821 0.8 1012220
19 октября, вт
вт1901:00+24зюз2492100 2.6 1011134
04:00+24юз2391100 2.2 1011109
07:00+24ююв2392100 5.2 1013145
10:00+25вюв1188100 1.6 1013144
13:00+27зсз347857 3.8 1011798
16:00+25сз349097 3.6 1010356
19:00+24зсз3592100 6.9 1012237
22:00+24зюз249399 4.5 1014163
20 октября, ср
ср2001:00+24ююз2495100 8.1 1012173
04:00+24ю229499 1.8 1011112
07:00+24юв2295100 3.4 101397
10:00+26юв128677 2.6 1015361
13:00+26ююз228497 9.1 1012361
16:00+25зюз2391100 6.0 1011164
19:00+24зсз3492100 9.8 1013171
22:00+24сз239599 3.9 1014161
21 октября, чт
чт2101:00+23сз119599 7.3 101379
04:00+24з1192100 1.9 101259
07:00+24юв1190100 2.7 1013112
10:00+27зюз1177100 1.3 1014650
13:00+27з3377100 3.2 1012851
16:00+27з347998 1.2 1011711
19:00+25зсз2387100 1.6 1012152
22:00+25зсз1188100 1.4 101459